Regional Weather Roundup
Issued by NWS

Home | Current Version | Previous Version | Text Only | Print | Product List | Glossary On
Versions: 1 2 3 4 5 6 7 8 9 10 11 12 13 14 15 16 17 18 19 20 21 22 23 24 25 26 27 28 29 30 31 32 33 34 35 36 37 38 39 40 41 42 43 44 45 46 47 48 49 50
000
ASUS43 KBIS 030910
RWRND

NORTH DAKOTA REGIONAL WEATHER ROUNDUP
NATIONAL WEATHER SERVICE BISMARCK ND
400 AM CDT TUE AUG 03 2021

NOTE: "FAIR" INDICATES FEW OR NO CLOUDS BELOW 12,000 FEET WITH NO
SIGNIFICANT WEATHER AND/OR OBSTRUCTIONS TO VISIBILITY.


NDZ001>003-009>011-017-031000-
NORTHWEST NORTH DAKOTA

CITY           SKY/WX    TMP DP  RH WIND       PRES   REMARKS
WILLISTON      PTCLDY    68  49  50 E5        30.06F
MINOT          PTCLDY    63  52  67 CALM      30.04S
MINOT AFB      PTCLDY    58  43  57 CALM      30.02F
$$

NDZ018>021-031>035-040>046-031000-
SOUTHWEST NORTH DAKOTA

CITY           SKY/WX    TMP DP  RH WIND       PRES   REMARKS
BISMARCK       PTCLDY    64  55  72 NE6       30.07R
DICKINSON      PTCLDY    60  51  72 S9        30.06S
GARRISON         N/A     62  52  69 E3        30.05F
HETTINGER ARPT PTCLDY    64  55  72 SE3       30.08S
$$

NDZ004>008-012>016-024-026-027-054-031000-
NORTHEAST NORTH DAKOTA

CITY           SKY/WX    TMP DP  RH WIND       PRES   REMARKS
GRAND FORKS    PTCLDY    60  52  74 W5        30.01S
GRND FRKS AFB  PTCLDY    60  58  92 W6        30.01S
DEVILS LAKE    PTCLDY    63  57  81 CALM      30.06S
$$

NDZ022-023-025-028>030-036>039-047>053-031000-
SOUTHEAST NORTH DAKOTA

CITY           SKY/WX    TMP DP  RH WIND       PRES   REMARKS
FARGO          PTCLDY    63  54  72 S6        30.04S
JAMESTOWN      PTCLDY    60  53  77 CALM      30.05F
$$




USA.gov is the U.S. government's official web portal to all federal, state and local government web resources and services.